Location: Newark
(49.8969°N, 3.3422°E)
Time: 07:26:44
(UTC+00:00)

deb Explorer IX - Pass Details

Date: 27 January 2020
Orbit: 549 x 1099 km, 38.8° (Epoch: 20 February)

Event Time Altitude Azimuth Distance (km) Brightness Sun altitude
Rises 02:06:05 0° 266° (W) 3,909 - -49.8°
Reaches altitude 10° 02:09:59 10° 247° (WSW) 2,936 - -49.3°
Maximum altitude 02:14:12 17° 211° (SSW) 2,431 - -48.7°
Drops below altitude 10° 02:18:17 10° 175° (S) 2,814 - -48.2°
Sets 02:21:55 0° 156° (SSE) 3,675 - -47.7°
